COSMOS 249 DEB, 14430

Orbit data source: Space-Track

COSMOS 249 DEB, 14430 is space debris in LEO originally from a launch on Sun, 20 Oct 1968 UTC launched from the Tyuratam Missile And Space Complex (TTMTR). Debris objects in space refer to the collection of defunct objects orbiting the Earth. Examples of debris include non-operational satellites, rocket bodies, and fragments generated from explosions, collisions, or faulty payload assembly.

Loading next visibility...
Identifier
14430, 1968-091CV
Orbit
LEO
Country
Flag of CISCIS
Related business
Manufacturer
Unknown
Mission
Spacecraft
Bus & Motor
Unknown
Mass
Unknown
Launch date (UTC)
1968-10-20 (58 years ago)
Launch vehicle
Unknown
Launch site
Tyuratam Missile And Space Complex (TTMTR)
Object type
Payload
Rocket body
Debris
Shape & HBR
Unknown shape, 1.1 m
Radar Cross Section
Medium (>0.1 m² and <1 m²)

Expand to show TLE details & history
Last TLE update: 1 day ago

TLE from 1 day ago
0 COSMOS 249 DEB
1 14430U 68091CV  26174.20499498  .00001968  00000-0  23035-2 0  9990
2 14430  62.2420 254.8078 0664548 176.7127 213.2780 13.02099538101676
Epoch: 2026-06-23T04:55Z
TLE epoch observation values (Epoch: 2026-06-23T04:55:11.566Z)
Latitude
22.93353°
Longitude
-77.56548°
Altitude
1,688.809 km
Speed
6.831 km/s
True Right ascension
17h 50m 27s
True Declination
22° 49' 29"
Sunlit
Object was in full shadow at epoch
Visualization orbit readout
Latitude
Unknown
Longitude
Unknown
Altitude
Unknown
Speed
Unknown
Apparent Right ascension
Unknown
Apparent Declination
Unknown
Sunlit
N/A
Visualization observer readout
Local Sidereal Time
17:55:05
Azimuth
Unknown
Elevation
Unknown
Doppler factor
Unknown
Orbital elements
Apogee altitude
1,759.982 km
Perigee altitude
745.749 km
Semi-major axis
7,631.002 km
Eccentricity
0.06645
Inclination
62.242°
RAAN
254.8078°
Arg. of periapsis
176.7127°
True anomaly
209.37451°
Mean anomaly
213.278°
Eccentric anomaly
211.2999°
Mean motion
3.2559 °/min
Orbital period
110.57 mins
BSTAR
0.0023035
Loading maneuver chart data...
Computing Atmospheric mass density...

Documentation

Showing up to 5 results
|